When you browse on this site, cookies collect data to enhance your experience and personalize the content and advertising you see.
Visit our Privacy Policy to learn more. By continuing to use the site, you agree to this use of cookies and data.
  • în România
  • Lista ţărilor
  • Pe 7 zile
  • Temperatura apei
  • Hartă satelitară
  • Meteo pe hartă
  • Widget-uri
  • user-avatar
    Intrare

    Meteo pe oră la Huhtervu

    Astăzi, 21 Mai, Marţi

    Timp Temperatura Precipitaţii Vânt Presiune Umiditate
    00:00 +10°C° 0.2 mm 3 m/s 758 mmHg 73%
    01:00 +10°C° 0.2 mm 3 m/s 757 mmHg 76%
    02:00 +10°C° 0 mm 4 m/s 757 mmHg 76%
    03:00 +10°C° 0 mm 3 m/s 757 mmHg 78%
    04:00 +10°C° 0 mm 3 m/s 757 mmHg 80%
    05:00 +10°C° 0 mm 3 m/s 757 mmHg 81%
    06:00 +11°C° 0 mm 3 m/s 757 mmHg 79%
    07:00 +13°C° 0 mm 2 m/s 756 mmHg 77%
    08:00 +13°C° 0 mm 3 m/s 756 mmHg 71%
    09:00 +14°C° 0 mm 3 m/s 756 mmHg 68%
    10:00 +17°C° 0 mm 3 m/s 756 mmHg 65%
    11:00 +18°C° 0 mm 3 m/s 756 mmHg 62%
    12:00 +18°C° 0 mm 3 m/s 756 mmHg 61%
    13:00 +19°C° 0 mm 3 m/s 755 mmHg 60%
    14:00 +20°C° 0 mm 3 m/s 755 mmHg 58%
    15:00 +20°C° 0 mm 2 m/s 755 mmHg 59%
    16:00 +19°C° 0 mm 2 m/s 754 mmHg 61%
    17:00 +19°C° 0 mm 2 m/s 754 mmHg 62%
    18:00 +19°C° 0 mm 1 m/s 754 mmHg 69%
    19:00 +16°C° 0 mm 1 m/s 754 mmHg 76%
    20:00 +15°C° 0 mm 1 m/s 753 mmHg 83%
    21:00 +14°C° 0 mm 1 m/s 754 mmHg 84%
    22:00 +13°C° 0 mm 1 m/s 754 mmHg 86%
    23:00 +11°C° 0 mm 0 m/s 754 mmHg 88%

    Mâine, 22 Mai, Miercuri

    Timp Temperatura Precipitaţii Vânt Presiune Umiditate
    00:00 +11°C° 0 mm 0 m/s 753 mmHg 87%
    01:00 +11°C° 0 mm 0 m/s 753 mmHg 87%
    02:00 +11°C° 0 mm 0 m/s 753 mmHg 87%
    03:00 +12°C° 0 mm 1 m/s 753 mmHg 85%
    04:00 +13°C° 0 mm 1 m/s 753 mmHg 82%
    05:00 +14°C° 0 mm 1 m/s 753 mmHg 80%
    06:00 +15°C° 0 mm 2 m/s 753 mmHg 77%
    07:00 +16°C° 0 mm 2 m/s 753 mmHg 74%
    08:00 +17°C° 0 mm 2 m/s 753 mmHg 72%
    09:00 +18°C° 0 mm 2 m/s 753 mmHg 67%
    10:00 +19°C° 0 mm 2 m/s 753 mmHg 63%
    11:00 +20°C° 0 mm 2 m/s 753 mmHg 59%
    12:00 +20°C° 0.2 mm 2 m/s 753 mmHg 61%
    13:00 +20°C° 0.2 mm 3 m/s 753 mmHg 64%
    14:00 +19°C° 0.2 mm 3 m/s 753 mmHg 66%
    15:00 +19°C° 0.1 mm 3 m/s 753 mmHg 66%
    16:00 +18°C° 0.1 mm 4 m/s 752 mmHg 66%
    17:00 +18°C° 0.1 mm 4 m/s 752 mmHg 66%
    18:00 +17°C° 0 mm 4 m/s 753 mmHg 67%
    19:00 +15°C° 0 mm 4 m/s 753 mmHg 69%
    20:00 +14°C° 0 mm 4 m/s 753 mmHg 71%
    21:00 +13°C° 0 mm 4 m/s 753 mmHg 68%
    22:00 +12°C° 0 mm 5 m/s 754 mmHg 66%
    23:00 +10°C° 0 mm 5 m/s 754 mmHg 64%

    Poimâine, 23 Mai, Joi

    Timp Temperatura Precipitaţii Vânt Presiune Umiditate
    00:00 +8°C° 0 mm 5 m/s 755 mmHg 64%
    01:00 +7°C° 0 mm 5 m/s 755 mmHg 65%
    02:00 +6°C° 0 mm 5 m/s 756 mmHg 65%
    03:00 +6°C° 0 mm 5 m/s 756 mmHg 65%
    04:00 +5°C° 0 mm 5 m/s 756 mmHg 64%
    05:00 +3°C° 0 mm 5 m/s 757 mmHg 63%
    06:00 +5°C° 0 mm 4 m/s 757 mmHg 59%
    07:00 +6°C° 0 mm 4 m/s 757 mmHg 56%
    08:00 +6°C° 0 mm 4 m/s 757 mmHg 52%
    09:00 +7°C° 0 mm 4 m/s 757 mmHg 49%
    10:00 +7°C° 0 mm 4 m/s 758 mmHg 47%
    11:00 +9°C° 0 mm 3 m/s 758 mmHg 44%
    12:00 +10°C° 0 mm 3 m/s 758 mmHg 42%
    13:00 +12°C° 0 mm 2 m/s 758 mmHg 40%
    14:00 +13°C° 0 mm 2 m/s 757 mmHg 38%
    15:00 +13°C° 0 mm 2 m/s 757 mmHg 38%
    16:00 +13°C° 0 mm 2 m/s 757 mmHg 39%
    17:00 +13°C° 0 mm 2 m/s 757 mmHg 40%
    18:00 +12°C° 0 mm 1 m/s 757 mmHg 43%
    19:00 +11°C° 0 mm 1 m/s 757 mmHg 47%
    20:00 +10°C° 0 mm 1 m/s 757 mmHg 51%
    21:00 +9°C° 0 mm 1 m/s 757 mmHg 53%
    22:00 +9°C° 0 mm 1 m/s 757 mmHg 54%
    23:00 +8°C° 0 mm 1 m/s 757 mmHg 56%

    24 Mai, Vineri

    Timp Temperatura Precipitaţii Vânt Presiune Umiditate
    00:00 +7°C° 0.1 mm 2 m/s 757 mmHg 59%
    01:00 +6°C° 0.1 mm 2 m/s 757 mmHg 62%
    02:00 +5°C° 0.1 mm 3 m/s 757 mmHg 66%
    03:00 +5°C° 0.3 mm 3 m/s 757 mmHg 69%
    04:00 +4°C° 0.3 mm 4 m/s 757 mmHg 72%
    05:00 +4°C° 0.3 mm 4 m/s 757 mmHg 75%
    06:00 +4°C° 0.2 mm 4 m/s 757 mmHg 73%
    07:00 +4°C° 0.2 mm 4 m/s 757 mmHg 72%
    08:00 +3°C° 0.2 mm 5 m/s 757 mmHg 70%
    09:00 +3°C° 1.3 mm 5 m/s 756 mmHg 73%
    10:00 +3°C° 1.3 mm 5 m/s 756 mmHg 76%
    11:00 +2°C° 1.3 mm 5 m/s 756 mmHg 79%
    12:00 +2°C° 1.5 mm 5 m/s 756 mmHg 81%
    13:00 +2°C° 1.5 mm 6 m/s 756 mmHg 83%
    14:00 +2°C° 1.5 mm 6 m/s 755 mmHg 85%
    15:00 +3°C° 0.5 mm 6 m/s 755 mmHg 86%
    16:00 +3°C° 0.5 mm 5 m/s 755 mmHg 87%
    17:00 +3°C° 0.5 mm 5 m/s 754 mmHg 89%
    18:00 +3°C° 0 mm 5 m/s 754 mmHg 89%
    19:00 +3°C° 0 mm 5 m/s 754 mmHg 89%
    20:00 +3°C° 0 mm 5 m/s 754 mmHg 89%
    21:00 +3°C° 0 mm 5 m/s 753 mmHg 89%
    22:00 +3°C° 0 mm 5 m/s 753 mmHg 90%
    23:00 +3°C° 0 mm 5 m/s 753 mmHg 90%

    25 Mai, Sâmbătă

    Timp Temperatura Precipitaţii Vânt Presiune Umiditate
    00:00 +4°C° 0 mm 4 m/s 753 mmHg 91%
    01:00 +4°C° 0 mm 4 m/s 752 mmHg 92%
    02:00 +4°C° 0 mm 4 m/s 752 mmHg 93%
    03:00 +4°C° 0 mm 4 m/s 752 mmHg 92%
    04:00 +4°C° 0 mm 4 m/s 751 mmHg 91%
    05:00 +4°C° 0 mm 4 m/s 751 mmHg 91%
    06:00 +5°C° 0 mm 4 m/s 751 mmHg 90%
    07:00 +5°C° 0 mm 4 m/s 751 mmHg 89%
    08:00 +6°C° 0 mm 4 m/s 750 mmHg 88%
    09:00 +7°C° 0 mm 4 m/s 750 mmHg 86%
    10:00 +8°C° 0 mm 3 m/s 750 mmHg 84%
    11:00 +9°C° 0 mm 3 m/s 750 mmHg 83%
    12:00 +10°C° 0 mm 2 m/s 750 mmHg 79%
    13:00 +12°C° 0 mm 2 m/s 750 mmHg 75%
    14:00 +13°C° 0 mm 2 m/s 749 mmHg 71%
    15:00 +13°C° 0 mm 1 m/s 749 mmHg 70%
    16:00 +13°C° 0 mm 1 m/s 749 mmHg 70%
    17:00 +13°C° 0 mm 1 m/s 749 mmHg 69%
    18:00 +13°C° 0 mm 1 m/s 748 mmHg 73%
    19:00 +12°C° 0 mm 1 m/s 748 mmHg 76%
    20:00 +11°C° 0 mm 1 m/s 748 mmHg 79%
    21:00 +10°C° 0 mm 2 m/s 748 mmHg 84%
    22:00 +9°C° 0 mm 2 m/s 747 mmHg 88%
    23:00 +8°C° 0 mm 3 m/s 747 mmHg 92%

    26 Mai, Duminică

    Timp Temperatura Precipitaţii Vânt Presiune Umiditate
    00:00 +7°C° 0 mm 3 m/s 747 mmHg 93%
    01:00 +7°C° 0 mm 3 m/s 746 mmHg 94%
    02:00 +5°C° 0 mm 3 m/s 746 mmHg 95%
    03:00 +7°C° 0.1 mm 3 m/s 746 mmHg 94%
    04:00 +7°C° 0.1 mm 3 m/s 745 mmHg 93%
    05:00 +7°C° 0.1 mm 4 m/s 745 mmHg 91%
    06:00 +7°C° 0.1 mm 4 m/s 745 mmHg 91%
    07:00 +7°C° 0.1 mm 4 m/s 744 mmHg 91%
    08:00 +7°C° 0.1 mm 4 m/s 744 mmHg 90%
    09:00 +7°C° 0.2 mm 4 m/s 744 mmHg 90%
    10:00 +9°C° 0.2 mm 3 m/s 744 mmHg 90%
    11:00 +9°C° 0.2 mm 3 m/s 744 mmHg 90%
    12:00 +9°C° 0.3 mm 3 m/s 744 mmHg 89%
    13:00 +10°C° 0.3 mm 3 m/s 744 mmHg 88%
    14:00 +10°C° 0.3 mm 3 m/s 743 mmHg 87%
    15:00 +10°C° 0.8 mm 2 m/s 743 mmHg 89%
    16:00 +9°C° 0.8 mm 2 m/s 743 mmHg 92%
    17:00 +9°C° 0.8 mm 2 m/s 743 mmHg 94%
    18:00 +9°C° 0.5 mm 2 m/s 743 mmHg 94%
    19:00 +9°C° 0.5 mm 2 m/s 742 mmHg 94%
    20:00 +8°C° 0.5 mm 2 m/s 742 mmHg 95%
    21:00 +8°C° 0.1 mm 2 m/s 742 mmHg 95%
    22:00 +8°C° 0.1 mm 2 m/s 742 mmHg 95%
    23:00 +8°C° 0.1 mm 2 m/s 742 mmHg 95%
    Arată mai mult